Location: Larroque
(43.8254°N, 0.4640°E)
Time: 14:23:02
(UTC+00:00)

Daily predictions for brighter satellites

Satellite Brightness Start Highest point End
(mag) Time Altitude Azimuth Time Altitude Azimuth Time Altitude Azimuth
Meteor 1-20 Rocket 4.2 18:08:28 10° S 18:13:50 62° E 18:19:15 10° NNE
Cosmos 1302 Rocket 4.1 18:08:53 10° SSW 18:14:04 89° WNW 18:19:19 10° NNE
SL-4 R/B 3.4 18:12:01 10° NW 18:14:55 22° N 18:17:44 10° NE
CSL-04 DEB 4.4 18:15:52 10° NNE 18:19:50 89° ENE 18:23:51 10° SSW
ATLAS CENTAUR R/B 2.1 18:19:40 10° S 18:22:42 25° ESE 18:25:45 10° ENE
FALCON 9 DEB 4.5 18:20:14 10° NW 18:23:12 26° NNE 18:26:09 10° E
Okean-O 2.7 18:23:18 10° SSE 18:27:37 56° ENE 18:31:58 10° N
Cosmos 44 Rocket 3.5 18:22:29 10° NNW 18:27:42 61° NE 18:32:49 10° SE
CSL-04 Rocket 4.2 18:23:57 10° SE 18:29:05 40° ENE 18:34:11 10° N
ERS-2 2.6 18:25:38 10° NNE 18:29:05 39° E 18:32:31 10° S
Cosmos 2084 Rocket 3.9 18:25:49 10° NNW 18:30:00 45° NE 18:34:19 10° ESE
Cosmos 1844 Rocket 3.4 18:25:02 10° N 18:30:04 33° NE 18:35:04 10° ESE
Cosmos 1666 4.2 18:30:50 10° ESE 18:33:00 15° E 18:35:12 10° NE
Cosmos 1271 Rocket 3.3 18:31:05 10° NNW 18:34:47 60° W 18:38:29 10° S
HJ-1C 3.8 18:32:26 10° SE 18:35:34 41° ENE 18:38:42 10° N
Cosmos 1503 Rocket 4.3 18:31:52 10° N 18:36:51 44° ENE 18:41:45 10° SE
H-2A R/B 4.4 18:34:24 10° N 18:37:50 26° WNW 18:41:14 10° WSW
PSLV R/B 3.8 18:36:08 10° NNE 18:40:14 71° ESE 18:44:17 10° S
Cosmos 1470 Rocket 3.6 18:36:24 10° S 18:40:47 57° E 18:45:10 10° NNE
Cosmos 1844 4.4 18:36:37 10° N 18:41:54 35° NE 18:46:58 11° ESE
Cosmos 2360 Rocket 2.4 18:37:42 10° S 18:43:06 48° ESE 18:48:32 10° NE
CZ-4B R/B 3.1 18:41:20 10° N 18:44:09 34° WNW 18:46:57 10° SW
Cosmos 1602 3.8 18:40:34 10° S 18:44:26 81° W 18:48:22 10° N
Ariane Rocket 4.4 18:42:04 13° E 18:44:45 19° ENE 18:48:18 10° NNE
Cosmos 2278 Rocket 4.1 18:44:43 10° NNE 18:46:36 12° NE 18:48:29 10° ENE
Meteor 1-19 Rocket 4.3 18:44:00 10° N 18:49:58 82° E 18:55:44 10° SSE
Cosmos 1500 3.2 18:47:53 10° S 18:51:30 53° E 18:55:10 10° NNE
Cosmos 2333 Rocket 3.1 18:48:52 10° SSE 18:53:25 25° ESE 18:57:59 10° NE
Meteor 2-4 Rocket 3.9 18:48:47 10° N 18:54:30 54° ENE 19:00:18 10° SSE
Cosmos 1703 Rocket 4.1 18:50:38 10° N 18:54:42 36° ENE 18:58:43 10° SE
DMSP B5D1-3 4.5 18:50:12 10° NNE 18:55:24 80° ESE 19:00:33 10° S
SL-08 RB Rocket 3.7 18:51:47 10° SSE 18:56:12 58° ENE 19:00:41 10° N
Meteor 2-12 Rocket 4.4 18:50:51 10° S 18:56:52 75° E 19:02:59 10° NNE
Cosmos 1689 Rocket 2.1 18:54:41 10° N 18:57:35 76° WNW 19:00:27 10° SSW
Cosmos 1933 Rocket 3.5 18:57:24 10° S 19:01:41 63° E 19:06:02 10° NNE
BREEZE-M DEB (TANK) 3.8 19:01:40 10° SSW 19:03:36 23° SE 19:03:36 23° SE
Aureole 2 Rocket 1.5 19:02:49 10° NNW 19:05:21 82° WSW 19:06:52 20° SSE
Cosmos 1862 Rocket 4.3 19:02:24 10° NNW 19:06:49 58° W 19:11:11 10° S
Resurs 01 Rocket 3.7 19:12:40 12° NE 19:12:40 12° NE 19:13:33 10° NNE
Cosmos 2242 Rocket 3.5 19:08:21 10° N 19:12:50 64° E 19:17:15 10° SSE
Cosmos 2322 Rocket 2.8 19:07:33 10° SW 19:13:04 58° WNW 19:18:38 10° NNE
Lacrosse 4 Rocket 2.6 19:11:30 10° SSE 19:14:29 26° SE 19:14:29 26° SE
Abrixas rocket 3.0 19:13:42 10° WNW 19:15:53 26° N 19:16:07 25° N
Helios 1A Rocket 3.3 19:14:35 10° S 19:18:37 64° W 19:22:38 10° NNW
SME Rocket 4.3 19:11:57 10° NNE 19:19:23 45° E 19:24:20 10° SSE
YAOGAN 1 4.1 19:15:24 10° SSW 19:19:26 38° W 19:23:29 10° NNW
COSMOS 2428 3.3 19:18:24 10° SSE 19:23:22 32° ESE 19:24:51 28° ENE
SJ-6B 3.2 19:22:30 37° ESE 19:23:28 45° ENE 19:27:21 10° N
GP-B 3.2 19:23:00 10° S 19:27:25 80° W 19:31:53 10° N
ASTEX 1 3.7 19:23:48 10° NNE 19:28:26 41° E 19:30:11 30° SE
Cosmos 2219 Rocket 2.4 19:25:01 10° S 19:30:15 43° ESE 19:35:33 10° NE
Meteor 1-11 Rocket 3.9 19:25:13 10° SSE 19:30:42 49° E 19:36:07 10° NNE
MetOp-A 4.0 19:27:06 10° SSE 19:32:25 74° ENE 19:37:47 10° N
OBJECT-B 2.5 19:36:24 23° NNE 19:36:24 23° NNE 19:37:51 10° N
ARGOS 4.3 19:31:35 10° S 19:36:44 45° W 19:41:57 10° NNW
SL-16 R/B 4.0 19:32:58 10° WSW 19:37:59 31° NW 19:43:02 10° N
Resurs 1-3 4.4 19:38:47 34° NE 19:38:47 34° NE 19:42:02 10° N
SJ 16-02 3.1 19:37:34 10° N 19:39:34 19° NNE 19:39:34 19° NNE
SeaSat 1 3.2 19:37:03 10° NNE 19:41:53 54° WNW 19:46:40 10° SW
Okean 1-7 3.1 19:37:37 10° NNW 19:42:00 75° W 19:45:45 13° S
CZ-4 R/B 4.4 19:40:36 10° SW 19:43:02 16° W 19:45:29 10° NW
Cosmos 1066 Rocket 4.4 19:38:38 10° N 19:44:14 53° ENE 19:45:41 43° ESE
Meteor 1-13 Rocket 4.2 19:38:43 10° N 19:44:41 74° E 19:48:31 23° SSE
USA 234 3.1 19:39:53 18° NE 19:44:57 83° SE 19:51:30 10° SW
H-2A R/B 4.4 19:43:00 10° SSW 19:47:28 26° W 19:51:57 10° NW
IRS-1A Rocket 4.1 19:46:43 33° SSE 19:49:18 71° ENE 19:54:51 10° N
CZ-2C R/B 3.6 19:44:21 10° N 19:49:38 49° WNW 19:54:46 10° SW
Cosmos 2322 3.6 19:44:28 10° SSW 19:50:11 81° ESE 19:55:56 10° NNE
BREEZE-M DEB (TANK) 3.3 19:48:08 10° WNW 19:50:48 40° NNE 19:51:10 39° NNE
SL-4 R/B 2.9 19:51:48 10° NW 19:54:12 32° NNW 19:54:12 32° NNW
DMSP B5D2-2 4.4 19:50:19 10° N 19:55:30 65° WNW 20:00:39 10° SSW
Cosmos 1869 Rocket 3.5 19:51:38 10° S 19:55:59 81° W 20:00:23 10° N
SL-8 Rocket 4.1 19:52:08 10° SSW 19:58:22 76° W 20:04:36 10° N
FALCON 9 DEB 4.3 19:56:58 10° WNW 19:59:26 42° WNW 19:59:26 42° WNW
ATLAS CENTAUR R/B 3.0 19:58:21 10° WSW 20:01:29 27° NW 20:03:10 19° N
Cosmos 1666 4.2 20:04:49 10° SW 20:08:14 34° WNW 20:11:42 10° N
Cosmos 2366 rocket 4.2 20:07:08 10° SSW 20:13:25 72° W 20:19:47 10° N
Cosmos 1844 Rocket 3.9 20:08:52 10° NW 20:13:59 39° WSW 20:17:54 16° SSW
SL-08 R/B 4.4 20:11:58 40° SSE 20:14:26 73° E 20:20:54 10° NNE
SPOT 3 Rocket 4.1 20:18:38 45° NNE 20:18:38 45° NNE 20:22:26 10° N
Cosmos 1777 Rocket 4.2 20:12:15 10° NNW 20:17:27 65° WSW 20:18:17 56° SSW
Okean 3 4.2 20:15:59 10° NNW 20:19:31 50° WNW 20:19:31 50° WNW
Ariane Rocket 3.4 20:22:15 50° SSW 20:23:14 60° WSW 20:28:18 10° NNW
Cosmos 2360 Rocket 4.0 20:22:27 10° WSW 20:27:18 29° NW 20:32:12 10° N
Cosmos 2278 Rocket 2.9 20:26:27 10° NNW 20:30:28 42° N 20:30:28 42° N
Cosmos 1727 Rocket 4.1 20:30:37 10° NNW 20:36:46 70° W 20:37:44 60° SW
Cosmos 2333 Rocket 3.0 20:31:49 10° SW 20:37:19 51° WNW 20:42:54 10° NNE
Meteor 2-20 4.4 20:31:59 10° NNW 20:38:06 77° W 20:38:13 77° WSW
Resurs 01 Rocket 3.8 20:50:14 21° NNW 20:50:14 21° NNW 20:51:46 10° NNW
Cosmos 1943 Rocket 4.5 20:47:11 10° N 20:48:24 14° NNE 20:48:24 14° NNE
Lacrosse 4 Rocket 3.9 20:49:41 10° WSW 20:50:57 18° WSW 20:50:57 18° WSW
COSMOS 2428 3.8 21:02:10 10° SW 21:14:01 - NNE 21:07:13 40° WNW
Cosmos 2219 Rocket 3.8 21:09:26 10° WSW 21:14:20 31° NW 21:19:18 10° N
SJ 16-02 4.2 21:15:44 10° NW 21:16:35 15° NW 21:16:35 15° NW
USA 234 4.2 21:27:15 40° NNW 21:27:37 41° NNW 21:33:37 10° W
